Time,TemperatureF,DewpointF,PressureIn,WindDirection,WindDirectionDegrees,WindSpeedMPH,WindSpeedGustMPH,Humidity,HourlyPrecipIn,Conditions,Clouds,dailyrainin,SoftwareType,DateUTC
2013-08-16 00:12:00,81.0,33.0,30.37,ENE,74,1.0,8.0,18,0.00,,,0.00,,2013-08-16 00:12:00,
2013-08-16 00:24:00,80.0,31.0,30.37,NNW,328,1.0,7.0,17,0.00,,,0.00,,2013-08-16 00:24:00,
2013-08-16 00:44:00,80.0,31.0,30.37,North,5,2.0,7.0,17,0.00,,,0.00,,2013-08-16 00:44:00,
2013-08-16 00:52:00,79.0,33.0,30.37,NNW,329,3.0,9.0,19,0.00,,,0.00,,2013-08-16 00:52:00,
2013-08-16 01:26:00,77.0,33.0,30.37,NW,320,2.0,6.0,20,0.00,,,0.00,,2013-08-16 01:26:00,
2013-08-16 01:41:00,-999.0,-99.9,30.37,NNW,328,1.0,-999.0,-999,-99.99,,,-99.99,,2013-08-16 01:41:00,
2013-08-16 01:54:00,74.0,36.0,30.37,NNW,327,0.0,3.0,25,0.00,,,0.00,,2013-08-16 01:54:00,
2013-08-16 02:12:00,73.0,37.0,30.37,NW,319,1.0,3.0,27,0.00,,,0.00,,2013-08-16 02:12:00,
2013-08-16 02:21:00,71.0,35.0,30.37,NW,317,2.0,5.0,27,0.00,,,0.00,,2013-08-16 02:21:00,
2013-08-16 02:42:00,69.0,35.0,30.38,NW,311,2.0,4.0,29,0.00,,,0.00,,2013-08-16 02:42:00,
2013-08-16 02:52:00,67.0,37.0,30.38,NW,311,1.0,3.0,33,0.00,,,0.00,,2013-08-16 02:52:00,
2013-08-16 03:11:00,64.0,35.0,30.38,SSE,153,3.0,8.0,34,0.00,,,0.00,,2013-08-16 03:11:00,
2013-08-16 03:21:00,63.0,35.0,30.39,SSW,203,4.0,7.0,35,0.00,,,0.00,,2013-08-16 03:21:00,
2013-08-16 03:43:00,62.0,35.0,30.39,SSW,197,4.0,7.0,36,0.00,,,0.00,,2013-08-16 03:43:00,
2013-08-16 03:53:00,62.0,35.0,30.40,South,179,2.0,7.0,36,0.00,,,0.00,,2013-08-16 03:53:00,
2013-08-16 04:13:00,62.0,33.0,30.40,South,190,6.0,11.0,34,0.00,,,0.00,,2013-08-16 04:13:00,
2013-08-16 04:23:00,63.0,33.0,30.40,SSE,161,5.0,9.0,33,0.00,,,0.00,,2013-08-16 04:23:00,
2013-08-16 04:42:00,64.0,34.0,30.40,South,169,5.0,12.0,32,0.00,,,0.00,,2013-08-16 04:42:00,
2013-08-16 04:53:00,64.0,33.0,30.40,South,182,8.0,17.0,31,0.00,,,0.00,,2013-08-16 04:53:00,
2013-08-16 05:11:00,64.0,33.0,30.40,South,172,5.0,10.0,31,0.00,,,0.00,,2013-08-16 05:11:00,
2013-08-16 05:21:00,64.0,33.0,30.40,South,174,5.0,10.0,31,0.00,,,0.00,,2013-08-16 05:21:00,
2013-08-16 17:12:00,78.0,31.0,30.43,ENE,59,0.0,4.0,18,0.00,,,0.00,,2013-08-16 17:12:00,
2013-08-16 17:28:00,79.0,30.0,30.43,ENE,57,4.0,9.0,17,0.00,,,0.00,,2013-08-16 17:28:00,
2013-08-16 17:47:00,79.0,30.0,30.43,NE,40,3.0,7.0,17,0.00,,,0.00,,2013-08-16 17:47:00,
2013-08-16 18:00:00,79.0,29.0,30.43,NNE,33,3.0,10.0,16,0.00,,,0.00,,2013-08-16 18:00:00,
2013-08-16 18:15:00,81.0,27.0,30.42,NE,46,4.0,10.0,14,0.00,,,0.00,,2013-08-16 18:15:00,
2013-08-16 18:27:00,81.0,19.0,30.42,NNE,29,5.0,9.0,10,0.00,,,0.00,,2013-08-16 18:27:00,
2013-08-16 18:50:00,-999.0,-99.9,30.42,ENE,68,3.0,10.0,12,0.00,,,0.00,,2013-08-16 18:50:00,
2013-08-16 18:55:00,83.0,23.0,30.42,North,360,1.0,7.0,11,0.00,,,0.00,,2013-08-16 18:55:00,
2013-08-16 19:14:00,81.0,24.0,30.42,SSW,208,2.0,14.0,12,0.00,,,0.00,,2013-08-16 19:14:00,
2013-08-16 19:25:00,83.0,27.0,30.41,ESE,102,2.0,9.0,13,0.00,,,0.00,,2013-08-16 19:25:00,
2013-08-16 19:46:00,82.0,24.0,30.41,NE,52,3.0,13.0,12,0.00,,,0.00,,2013-08-16 19:46:00,
2013-08-16 19:55:00,80.0,25.0,30.41,NNW,340,2.0,6.0,13,0.00,,,0.00,,2013-08-16 19:55:00,
2013-08-16 20:11:00,79.0,24.0,30.41,NE,36,5.0,9.0,13,0.00,,,0.00,,2013-08-16 20:11:00,
2013-08-16 20:23:00,80.0,25.0,30.41,East,83,1.0,8.0,13,0.00,,,0.00,,2013-08-16 20:23:00,
2013-08-16 20:44:00,82.0,30.0,30.40,ESE,122,0.0,7.0,15,0.00,,,0.00,,2013-08-16 20:44:00,
2013-08-16 20:52:00,80.0,25.0,30.40,SSE,150,2.0,10.0,13,0.00,,,0.00,,2013-08-16 20:52:00,
2013-08-16 21:11:00,82.0,24.0,30.40,NNE,18,2.0,10.0,12,0.00,,,0.00,,2013-08-16 21:11:00,
2013-08-16 21:25:00,83.0,27.0,30.40,NE,52,1.0,6.0,13,0.00,,,0.00,,2013-08-16 21:25:00,
2013-08-16 21:40:00,-999.0,-99.9,30.39,NW,309,0.0,7.0,-999,0.00,,,0.00,,2013-08-16 21:40:00,
2013-08-16 21:53:00,83.0,29.0,30.39,WNW,303,2.0,7.0,14,0.00,,,0.00,,2013-08-16 21:53:00,
2013-08-16 22:13:00,84.0,26.0,30.38,NW,304,2.0,9.0,12,0.00,,,0.00,,2013-08-16 22:13:00,
2013-08-16 22:24:00,84.0,26.0,30.38,NNW,333,2.0,6.0,12,0.00,,,0.00,,2013-08-16 22:24:00,
2013-08-16 22:43:00,83.0,25.0,30.38,WNW,286,2.0,9.0,12,0.00,,,0.00,,2013-08-16 22:43:00,
2013-08-16 22:52:00,85.0,25.0,30.38,NNE,18,0.0,2.0,11,0.00,,,0.00,,2013-08-16 22:52:00,
2013-08-16 23:12:00,85.0,27.0,30.37,NNE,24,0.0,7.0,12,0.00,,,0.00,,2013-08-16 23:12:00,
2013-08-16 23:23:00,84.0,24.0,30.38,WNW,298,2.0,7.0,11,0.00,,,0.00,,2013-08-16 23:23:00,
2013-08-16 23:42:00,83.0,27.0,30.37,NW,306,1.0,7.0,13,0.00,,,0.00,,2013-08-16 23:42:00,
2013-08-16 23:52:00,82.0,26.0,30.37,NW,304,2.0,9.0,13,0.00,,,0.00,,2013-08-16 23:52:00,